Theta_e
336 335 335 334 333 332 331 332 333 333 333 332 332 331 331 332 331 330 330 332 334 335 335 335 334 333 333 333 334 334 334 334 332 333 333 334 332 330 330 330 330 331 330 330 330 329 326 324 324 323 322 323 325 326 327 325 323 322 321 319 317 316 315 312 311 313 313 312 314 314 315 318 317 314 316 319 319 320 320 318 318 319 319 319 319
336 335 335 334 332 332 332 332 333 333 333 333 333 332 332 332 332 331 331 332 334 335 335 335 334 333 333 333 334 334 334 333 332 332 333 333 332 330 329 329 330 330 329 330 330 328 326 324 324 324 324 325 327 327 328 327 327 326 325 324 321 317 314 313 312 313 312 311 311 311 312 314 315 314 314 315 316 318 320 319 318 318 318 318 318
336 335 334 333 332 332 332 333 333 333 334 333 333 333 332 332 332 331 331 332 334 334 334 333 333 332 333 334 334 335 334 333 332 332 333 333 332 331 329 328 328 329 329 329 329 328 326 325 326 326 327 328 328 328 328 329 329 328 327 327 324 320 316 314 313 313 311 311 310 308 309 309 311 313 313 313 314 315 317 317 315 316 318 317 318
334 335 333 331 332 333 332 333 333 333 334 333 333 334 333 333 334 333 333 333 334 334 333 332 332 332 332 334 334 334 334 333 332 332 332 333 333 333 331 328 327 328 328 329 329 329 328 328 328 329 329 329 329 330 329 330 330 329 329 328 327 325 321 318 317 316 314 313 311 310 311 310 309 311 312 314 314 313 314 315 314 315 318 317 316
331 333 333 332 332 332 333 334 334 333 334 333 334 334 334 334 335 335 335 334 334 334 333 332 332 332 333 334 335 334 333 332 332 332 332 332 332 332 331 330 328 328 328 329 329 329 329 329 330 329 329 330 330 330 330 331 331 330 330 329 328 327 325 324 322 321 319 317 316 316 317 316 315 313 313 314 314 313 313 314 313 313 315 316 316
331 331 331 332 331 332 333 334 333 333 334 334 334 334 334 334 335 335 335 334 334 333 333 332 333 333 334 335 335 334 333 332 332 332 332 332 332 331 331 331 330 330 330 329 329 329 329 329 329 329 329 329 330 329 330 330 331 330 330 330 329 328 327 326 325 324 323 322 321 322 323 322 320 317 315 314 315 315 314 313 312 311 312 314 316
332 331 330 330 332 334 334 334 333 333 334 334 334 335 335 335 334 334 335 334 333 333 333 333 334 335 335 334 333 333 333 332 332 332 331 332 331 331 331 331 331 331 331 330 329 329 329 329 329 329 328 329 329 329 329 330 330 330 329 330 330 329 329 328 327 326 325 325 325 325 325 325 324 321 318 316 314 314 313 313 312 311 311 311 314
333 332 330 331 334 334 334 334 333 333 333 334 335 335 335 335 335 335 335 334 333 333 333 334 335 334 334 333 332 332 332 331 331 331 331 331 331 331 331 331 330 330 330 330 329 328 328 329 328 328 327 328 329 329 328 329 329 329 329 329 329 330 329 329 328 328 328 327 327 326 326 325 325 324 322 320 317 314 313 314 314 314 313 310 310
333 331 331 333 335 334 334 334 334 334 334 334 335 335 335 335 336 336 335 334 334 333 334 334 334 333 332 332 331 331 331 332 331 331 331 331 331 331 331 331 330 330 331 331 330 329 328 327 327 327 327 327 327 328 328 328 329 329 329 329 329 330 330 329 329 329 329 328 328 327 327 326 325 325 324 324 322 320 318 318 318 319 318 315 311
333 332 332 334 334 333 333 334 334 335 335 335 335 335 335 335 336 336 335 334 334 334 334 333 333 332 332 331 330 330 331 331 331 331 331 331 331 331 331 331 331 330 331 330 330 330 329 327 328 327 327 326 324 323 323 325 327 328 328 328 328 328 328 329 329 329 329 328 329 329 328 327 326 325 325 325 324 324 323 323 322 322 322 321 317
333 333 334 334 333 333 334 334 335 336 335 335 335 335 336 335 335 335 335 334 333 333 332 332 332 332 331 330 330 330 331 331 331 331 331 331 331 330 330 331 331 331 331 331 330 330 330 329 329 328 326 323 321 320 320 321 324 328 329 328 328 328 327 328 328 328 328 328 329 329 328 328 327 326 325 326 326 325 325 324 324 323 323 323 321
332 332 334 334 334 334 334 334 335 336 335 335 334 335 336 335 335 334 334 334 333 332 331 332 332 332 331 331 331 330 330 331 331 331 331 331 330 330 330 330 330 331 331 331 330 330 330 329 329 328 326 322 321 321 322 322 323 327 329 329 328 328 328 328 328 328 328 328 328 327 328 328 328 327 326 326 326 326 326 325 324 324 324 324 323
332 333 335 335 335 335 334 335 335 335 335 335 334 335 335 335 334 334 333 334 334 332 332 333 331 331 330 329 329 330 330 331 330 330 330 331 330 330 330 330 330 330 331 330 330 330 329 329 328 327 326 325 324 324 325 325 325 327 328 329 329 329 329 328 328 327 327 327 326 326 327 327 327 327 327 327 327 327 326 326 326 325 325 325 324
334 335 336 336 335 336 336 336 335 335 336 335 334 334 334 334 334 333 333 334 334 333 333 333 332 331 329 328 329 329 329 330 330 330 330 331 331 330 330 330 330 330 330 329 328 327 326 326 325 325 326 327 326 327 327 327 327 327 328 328 328 329 328 328 328 327 327 327 326 326 326 326 326 326 327 326 326 326 326 326 326 326 326 325 325
336 336 336 335 335 335 335 336 335 335 335 335 335 334 334 334 333 333 333 333 334 333 332 333 333 331 330 329 329 329 329 329 330 330 330 330 330 330 330 330 330 329 329 328 326 323 322 322 323 324 326 326 327 328 328 326 326 326 327 327 327 327 327 327 327 326 326 326 326 326 326 326 326 326 326 326 325 325 325 325 326 326 326 325 325
336 335 335 335 335 334 335 335 335 335 335 335 335 334 334 334 333 333 333 333 333 332 332 333 332 330 330 329 329 329 329 329 329 328 328 328 328 328 329 329 329 328 327 326 322 320 320 320 322 324 325 325 326 328 328 327 326 325 325 326 327 327 326 326 325 324 323 324 324 325 325 325 325 325 325 325 325 325 324 325 325 324 324 324 325
335 334 334 335 335 334 334 334 334 334 334 335 335 334 334 334 334 334 333 333 333 332 332 333 332 329 328 328 328 330 329 328 328 328 327 327 327 327 328 327 328 327 325 322 319 318 319 320 322 324 325 324 325 326 327 327 326 325 324 325 325 325 324 324 322 321 320 321 322 322 322 323 323 324 324 324 324 324 324 323 322 320 319 320 321
335 335 335 334 334 334 334 333 333 333 334 334 334 334 334 333 334 333 333 333 333 333 332 333 332 330 330 331 330 329 328 327 329 329 327 327 327 327 327 327 326 325 321 318 317 318 319 320 321 323 324 324 324 324 325 325 324 324 324 323 323 321 320 320 319 318 317 316 317 317 317 318 319 321 322 323 323 322 321 319 316 313 313 313 314
335 334 334 334 334 334 334 333 333 333 334 334 334 334 333 333 333 333 333 333 332 331 331 332 332 330 332 334 332 328 327 327 329 328 327 327 327 327 326 325 324 322 318 316 316 318 318 318 319 321 323 324 323 323 323 323 322 322 322 320 319 317 316 315 315 313 311 310 309 309 309 310 310 312 314 315 315 314 312 310 308 306 306 306 306
333 333 334 334 334 334 333 334 333 333 334 334 334 334 333 332 333 334 333 333 332 330 330 331 328 328 331 333 332 330 328 329 329 327 327 326 325 325 324 323 323 320 317 315 315 317 317 316 316 317 319 321 322 322 322 322 320 318 316 314 312 311 309 307 306 305 304 304 303 303 303 303 304 304 304 305 305 304 304 303 302 301 301 301 301
332 332 333 333 333 333 333 334 333 333 333 333 333 334 334 334 334 334 333 334 333 331 330 330 329 330 332 332 331 330 329 330 329 327 327 326 324 324 323 322 322 319 316 314 314 314 315 314 313 314 315 317 318 319 319 318 316 311 309 307 306 305 304 303 303 303 303 303 303 303 303 303 303 303 303 303 303 302 302 302 302 301 301 301 301
332 332 332 331 332 333 334 334 334 333 333 333 333 334 334 334 334 334 333 334 333 332 332 332 332 333 332 330 330 329 329 330 329 327 327 327 325 324 323 323 321 318 315 313 313 313 313 313 312 312 312 313 313 313 313 313 310 306 304 303 303 303 304 304 304 303 303 302 302 302 302 302 302 302 303 303 302 302 302 303 303 303 302 302 301
332 331 331 331 331 332 333 334 334 333 333 333 334 334 334 334 334 334 334 334 333 332 333 333 333 333 331 329 330 330 329 330 329 328 327 327 326 324 324 322 319 317 315 313 312 312 312 312 311 311 311 312 311 310 308 306 305 303 302 303 304 304 304 303 303 302 301 301 300 300 300 300 300 301 301 301 301 301 301 302 302 302 302 301 301
331 330 330 330 330 330 331 333 334 333 333 333 333 333 333 334 333 333 333 333 333 332 333 333 332 332 330 328 329 328 327 327 327 327 327 327 326 325 324 321 319 316 313 312 311 311 311 311 310 311 311 311 310 308 306 304 303 304 304 305 304 303 303 302 301 301 301 301 301 301 301 301 300 300 300 301 301 301 301 301 301 301 301 301 301
330 330 329 329 329 329 330 331 332 333 333 332 332 332 332 333 333 333 333 333 332 332 332 333 332 332 330 329 329 328 327 326 326 327 327 326 326 326 324 321 319 314 312 312 311 310 310 310 310 310 310 309 309 308 307 305 305 305 304 304 303 303 303 303 302 302 302 303 304 305 305 304 303 302 302 301 301 301 301 301 301 301 301 301 301
329 328 328 328 328 328 329 329 331 332 333 332 332 332 332 332 332 332 332 332 332 332 332 332 332 331 329 328 329 329 328 327 327 327 327 326 326 325 323 321 318 314 312 312 310 310 310 310 309 309 309 309 309 310 309 306 305 304 303 303 303 304 304 304 304 304 305 306 307 307 307 307 306 305 305 304 303 302 301 301 301 301 301 301 301
328 328 328 328 327 327 328 329 329 330 332 333 332 332 332 332 331 331 332 332 332 332 332 332 331 331 329 327 327 328 327 326 327 327 326 326 326 324 322 321 317 314 314 312 311 311 310 310 309 309 309 308 309 310 309 307 305 303 304 304 304 305 305 305 305 305 307 307 308 308 307 307 307 306 305 305 304 303 303 302 301 301 301 301 301
327 327 327 327 327 327 327 329 329 329 330 331 332 332 331 331 331 331 331 331 332 333 332 331 330 330 329 328 327 327 327 326 326 326 326 325 325 323 321 320 317 315 314 313 313 313 311 310 309 309 308 308 310 311 309 307 305 304 306 306 306 306 306 305 305 306 306 307 307 307 307 307 306 306 305 305 304 303 303 302 301 301 301 301 301
327 327 326 326 326 326 326 328 329 329 329 329 330 330 331 332 331 330 330 331 332 332 330 329 329 330 331 330 328 327 327 326 326 326 325 325 325 323 320 318 317 316 314 314 314 313 312 311 310 309 308 308 310 310 309 308 306 307 308 308 307 306 306 306 306 306 306 306 307 307 307 307 307 306 305 304 304 303 303 302 302 301 301 301 301
326 326 326 325 325 325 325 327 328 328 329 328 328 328 330 331 330 329 330 331 332 332 330 329 330 331 331 331 329 328 327 326 327 327 324 324 323 322 319 317 316 316 315 314 314 314 313 312 311 309 307 308 309 310 309 309 308 308 309 309 308 307 306 307 306 306 306 306 306 306 307 307 307 306 305 304 304 303 302 302 302 301 301 301 301
325 325 325 325 325 325 324 325 326 327 328 328 328 328 328 330 331 331 331 331 332 332 330 330 331 331 332 331 330 329 329 327 326 326 324 324 323 320 319 317 315 315 314 314 314 315 314 314 313 310 308 308 309 310 310 309 308 308 309 310 309 307 307 307 307 307 307 306 307 307 306 306 306 306 306 305 304 304 303 302 301 301 301 301 301
325 325 324 324 324 324 324 325 326 326 327 327 328 328 327 329 330 330 330 331 330 329 329 329 330 330 332 332 331 330 329 327 326 325 324 324 322 320 318 317 315 315 315 315 315 316 316 315 314 312 309 308 309 309 310 309 308 308 309 309 308 307 306 307 307 307 307 306 307 307 306 306 306 306 306 305 304 304 303 302 302 301 301 301 301
324 324 324 324 323 323 324 324 326 326 327 327 327 327 327 328 328 327 327 327 326 325 326 327 328 330 331 331 331 331 329 327 325 323 322 322 321 319 318 317 315 315 316 315 315 316 317 316 315 313 310 309 309 310 310 310 309 308 309 310 309 307 307 307 307 307 307 306 306 306 306 306 306 306 306 306 305 304 304 303 302 301 301 301 301
324 324 323 323 322 323 323 324 325 325 325 326 326 326 325 325 325 325 325 324 323 324 325 325 326 329 330 330 331 331 329 327 326 323 320 320 319 318 317 316 315 315 315 315 315 316 317 317 316 314 312 311 311 311 310 311 310 309 309 310 310 308 308 309 308 307 307 307 306 306 305 305 305 305 306 306 305 304 303 303 302 301 301 301 301
324 323 322 321 322 323 323 323 323 324 324 324 324 323 322 322 322 322 322 323 323 323 323 323 322 324 325 326 328 330 330 329 327 322 320 319 318 316 316 316 316 315 315 315 315 315 316 316 315 314 314 312 312 312 311 311 312 311 310 311 311 311 310 310 310 309 308 307 307 306 306 305 305 305 305 306 306 305 304 303 302 301 301 300 300
323 322 321 320 321 323 322 322 323 323 323 323 323 322 321 320 319 319 320 322 322 321 321 320 319 320 321 322 324 327 329 331 329 324 322 320 318 316 316 316 317 316 316 316 315 315 316 316 314 314 314 313 313 312 312 311 312 312 311 311 311 311 311 311 311 311 309 308 307 307 306 305 305 304 305 306 305 305 304 303 302 301 300 300 300
321 321 319 319 320 321 322 321 321 321 321 321 322 322 322 321 320 318 318 319 320 320 319 319 319 320 321 321 322 324 326 328 328 326 323 322 319 318 317 317 316 317 317 317 316 316 316 316 315 314 314 314 313 313 313 312 312 312 312 311 311 311 311 311 310 310 309 308 307 306 306 306 305 304 305 306 306 304 303 302 301 301 300 300 299
320 319 318 317 318 320 320 319 319 319 319 320 320 321 321 321 321 320 319 318 319 319 318 318 319 319 320 321 322 323 323 324 325 325 324 324 322 319 318 317 317 317 318 318 317 317 316 316 316 315 314 314 314 314 313 313 312 312 312 311 311 311 311 311 311 310 308 307 307 306 306 305 305 305 305 306 305 304 303 302 301 300 300 299 299
319 317 316 316 317 318 319 319 319 318 317 318 319 320 320 320 321 321 321 320 319 319 319 318 318 318 319 320 321 322 322 322 323 324 325 324 323 321 319 319 318 317 317 317 317 317 317 317 316 316 315 315 314 314 314 313 312 312 312 312 312 312 311 311 312 311 308 307 307 306 305 305 305 305 305 305 305 304 303 302 301 300 300 299 298
317 316 315 316 317 318 318 318 317 317 317 317 317 318 318 318 318 320 321 321 320 320 319 319 318 318 318 319 319 320 320 320 320 322 322 321 321 320 319 319 318 318 318 317 317 317 317 316 316 316 316 315 314 314 314 314 313 313 313 313 313 313 313 312 313 312 311 309 308 307 305 305 305 305 305 304 304 304 303 302 301 300 299 298 297
317 317 316 315 316 316 316 317 318 318 318 317 316 317 318 318 316 316 319 320 321 320 319 318 318 317 317 318 319 318 318 317 316 317 317 317 318 319 319 319 318 318 318 318 317 317 317 316 316 316 315 315 315 315 315 315 314 313 313 313 313 313 314 314 314 313 312 311 310 308 306 305 305 304 304 304 304 303 302 301 301 301 300 298 297
319 318 318 317 317 316 316 318 318 316 315 313 313 314 316 318 318 317 317 318 320 319 318 318 318 318 317 318 318 316 314 314 314 314 314 314 315 316 318 319 319 319 318 318 317 317 317 317 317 316 316 316 316 316 315 315 315 315 314 314 314 314 314 314 315 314 312 311 311 310 308 307 306 306 306 305 304 303 303 302 302 302 300 298 297
321 320 320 320 319 319 319 318 315 312 311 312 312 312 313 314 317 319 318 318 319 319 319 319 319 318 318 318 318 316 315 315 315 314 313 312 312 313 314 315 316 316 317 318 318 317 317 317 317 316 316 316 316 316 316 316 315 315 315 315 315 315 314 315 315 315 313 311 311 311 310 309 308 308 308 307 306 305 305 304 303 302 300 297 296
321 321 321 321 321 320 319 316 313 312 313 312 312 312 312 312 314 317 318 318 318 319 319 319 319 319 319 320 320 319 317 316 316 316 315 314 312 312 312 312 313 313 314 315 316 317 318 318 317 316 317 317 316 316 316 316 316 315 315 315 315 315 315 315 315 315 314 312 311 312 312 310 308 308 308 308 307 305 305 304 303 301 299 297 296
318 319 319 320 318 317 315 313 313 313 314 314 314 314 314 313 313 315 318 318 318 319 319 319 319 319 320 320 320 320 319 316 315 317 318 317 316 314 313 313 313 313 313 313 314 315 317 318 319 318 318 317 318 317 317 317 317 317 316 315 315 315 315 315 315 316 315 313 312 312 312 311 308 308 308 308 307 306 304 303 302 299 298 297 296
316 316 316 315 314 313 311 310 310 311 312 314 316 316 316 316 315 316 320 320 320 320 320 320 320 320 320 320 319 320 320 319 318 319 320 320 320 318 316 315 315 315 314 314 314 315 315 316 318 319 319 318 318 318 318 318 319 318 317 317 317 317 317 317 316 316 315 313 312 312 313 312 308 307 308 308 306 306 305 303 301 299 297 296 295
312 312 312 312 312 311 310 308 306 306 307 309 312 315 316 317 317 318 321 322 321 322 322 322 322 322 322 322 321 321 322 322 321 320 319 319 321 321 320 319 319 318 318 317 315 315 315 316 317 318 319 319 320 321 321 321 319 319 318 318 318 318 318 317 316 315 313 311 311 312 313 312 309 307 308 308 306 305 304 303 302 300 298 296 295
308 308 309 309 309 309 309 308 306 304 304 305 308 310 312 315 316 317 319 321 321 322 323 322 322 323 323 323 323 324 323 323 322 320 318 318 319 321 322 321 320 320 320 320 317 315 315 316 317 318 318 318 319 320 321 320 318 318 318 318 318 318 317 317 316 315 313 310 309 310 312 311 309 307 307 307 306 305 304 303 302 301 299 297 295
303 303 304 304 305 305 305 306 305 303 302 303 304 306 307 310 312 314 315 317 318 318 319 319 320 321 321 320 320 321 323 323 322 321 320 319 319 321 322 322 322 321 321 321 320 317 316 315 316 317 317 316 317 317 317 317 316 317 318 318 318 318 318 318 317 317 314 310 308 309 310 311 310 308 307 307 306 305 304 303 302 301 299 297 295
300 300 300 300 301 301 301 302 303 302 301 301 301 302 303 304 306 309 311 312 314 314 314 315 316 317 317 315 314 316 318 318 317 317 317 318 319 321 322 322 323 323 322 323 322 321 319 317 317 316 316 316 316 316 316 316 315 315 316 318 318 318 318 318 317 317 315 311 308 308 309 310 310 308 307 307 306 304 303 302 301 300 299 297 296
303 302 302 301 300 300 299 298 299 300 300 300 299 299 300 300 301 304 307 309 310 310 310 310 311 312 313 312 310 309 309 310 309 310 310 312 314 318 320 321 321 321 322 323 323 322 321 320 318 317 317 317 316 315 315 315 314 314 314 316 317 318 317 317 316 315 316 313 309 307 308 310 309 307 306 306 306 305 303 302 301 301 300 299 298
Wind_Speed
10 10 9 9 10 10 9 8 8 8 8 7 7 8 8 9 9 10 10 9 9 9 9 10 9 8 8 8 8 8 8 8 8 8 9 9 10 9 8 10 12 9 7 6 6 7 8 8 8 7 8 8 9 9 9 12 13 12 11 10 9 8 6 5 6 7 7 8 8 9 9 9 9 9 10 9 11 12 11 12 13 13 13 14 13
10 10 10 10 10 9 8 7 8 8 7 7 7 7 8 8 9 9 9 9 9 9 9 10 9 8 8 8 8 8 8 8 7 8 9 9 9 10 11 12 11 8 7 6 6 7 8 8 9 9 9 9 8 8 8 10 12 12 11 9 10 10 8 7 7 7 7 8 8 8 8 8 8 9 9 9 9 11 10 10 11 12 12 13 13
10 9 10 11 10 9 9 8 8 7 7 7 7 7 7 7 8 8 9 9 9 9 10 10 9 8 8 8 8 8 8 7 7 7 8 9 9 10 10 12 11 8 8 7 7 8 9 9 10 10 9 8 7 6 7 7 8 10 11 11 11 12 11 9 8 8 8 9 9 9 8 8 7 7 8 8 9 9 9 9 10 11 12 12 13
10 9 9 10 10 10 9 9 8 7 7 7 7 6 6 7 7 7 8 8 9 9 9 9 9 8 8 7 7 8 8 7 7 7 7 8 8 9 9 10 10 8 7 7 7 8 8 8 8 8 6 5 5 4 4 4 4 6 8 10 11 11 11 11 10 9 9 9 9 10 9 9 7 6 7 7 8 8 8 9 10 11 11 11 11
11 9 9 10 11 10 9 8 8 7 6 7 7 6 6 7 7 8 8 9 9 9 9 9 8 8 8 7 7 8 8 7 7 7 7 7 7 8 8 8 9 7 6 5 5 6 6 6 6 6 5 4 4 3 3 3 2 3 4 6 8 8 9 10 10 10 9 8 9 10 11 11 10 8 7 6 7 8 8 8 9 9 10 10 11
12 11 10 10 11 11 9 8 7 6 6 6 6 6 6 7 7 8 8 9 10 10 10 9 8 8 8 7 8 8 7 7 7 7 6 6 6 7 7 7 8 7 5 4 3 4 5 5 5 5 4 4 3 4 3 3 2 2 2 3 4 4 6 8 9 9 9 9 10 11 12 13 13 12 9 7 7 7 8 8 8 9 9 9 10
12 12 12 11 10 10 9 7 7 6 6 6 6 6 6 7 7 8 8 8 10 10 9 9 9 9 8 7 8 8 7 7 7 7 7 6 6 5 5 5 5 5 6 6 6 6 6 5 5 4 4 3 3 4 4 3 2 2 2 2 1 1 2 3 5 6 8 8 9 10 11 12 13 13 13 11 9 8 8 8 8 9 9 8 8
12 12 11 9 9 9 8 6 6 6 6 6 6 6 7 7 7 8 8 9 10 10 9 9 9 9 9 8 8 8 8 8 8 7 7 6 6 5 5 5 4 4 4 6 6 6 7 6 4 4 4 4 4 5 5 4 3 3 3 3 1 1 1 1 1 2 4 4 6 7 8 9 10 12 13 13 13 11 11 11 10 10 9 8 7
12 11 9 8 9 8 7 6 6 7 6 6 6 6 7 8 7 8 8 9 10 11 10 9 10 10 9 9 9 9 10 9 8 8 7 7 6 5 5 5 5 5 3 3 5 6 6 6 5 5 5 5 5 6 6 6 5 4 4 4 2 1 1 2 2 1 1 2 1 3 5 6 7 9 11 13 14 14 13 13 13 12 12 11 8
11 10 9 11 9 8 7 6 6 6 6 6 6 7 7 8 8 7 7 9 10 11 11 10 10 10 10 10 10 10 10 10 9 8 8 7 6 6 6 5 4 5 3 3 4 4 3 5 6 5 6 6 6 5 5 4 5 6 5 4 4 2 2 2 2 2 2 3 3 1 0 2 4 6 7 9 11 12 12 12 13 12 13 13 11
11 10 10 10 9 8 7 8 7 6 6 7 7 7 7 8 8 8 7 8 10 12 13 11 11 11 10 10 10 10 9 9 9 8 8 7 7 6 5 5 4 4 3 3 3 3 2 4 4 4 5 6 6 6 5 3 4 6 6 5 5 4 3 1 0 1 2 2 2 2 3 2 2 3 4 5 5 7 9 10 11 11 10 11 12
10 9 9 9 9 8 8 8 7 6 7 7 7 7 7 8 9 9 9 8 10 14 14 12 12 11 11 10 11 11 10 9 8 8 7 7 7 6 5 4 4 3 2 3 3 3 3 3 4 4 5 6 8 8 8 6 5 7 7 6 5 4 4 3 3 3 3 2 1 2 3 4 3 2 1 1 1 2 4 5 6 8 8 8 9
9 9 9 8 8 8 8 8 7 6 6 7 7 7 7 9 9 9 10 10 11 13 14 14 14 13 12 11 11 11 10 9 8 7 7 7 6 6 6 5 4 3 3 4 5 5 4 4 4 5 4 5 7 9 10 10 8 9 9 8 7 6 6 6 7 7 7 7 5 3 2 1 2 2 2 1 2 2 2 2 2 3 5 4 5
9 9 8 8 8 8 8 8 7 6 6 6 7 8 8 9 10 10 10 11 11 13 15 14 13 13 13 11 10 10 9 8 8 7 7 7 7 7 7 5 5 4 4 5 6 6 6 5 5 5 5 5 6 8 10 11 10 11 12 11 10 10 11 10 11 12 12 13 13 11 10 8 6 4 2 0 3 4 4 4 4 5 6 5 4
9 8 8 7 8 8 8 7 7 7 6 7 8 9 9 9 11 11 11 11 11 14 16 12 11 13 11 8 7 6 7 7 7 7 7 8 7 8 8 7 6 5 5 6 6 6 6 6 6 7 7 7 7 9 10 12 12 12 13 15 14 14 15 14 14 14 14 14 15 15 14 13 13 11 9 8 9 9 6 5 6 7 7 5 4
8 8 7 8 8 8 8 8 7 7 6 8 9 9 9 10 11 11 12 12 11 14 15 10 11 14 8 4 5 5 4 7 8 8 8 8 8 8 8 8 7 6 6 6 6 6 6 6 7 8 8 7 8 9 10 12 13 13 14 16 15 15 15 15 15 14 14 15 14 14 15 15 16 15 15 15 15 15 14 13 12 11 11 9 7
7 7 7 7 8 9 9 9 8 8 7 7 8 9 10 10 11 11 12 12 12 13 13 10 13 17 12 5 4 3 4 8 10 8 7 8 8 8 8 8 8 7 7 6 7 6 6 7 7 8 8 7 8 9 10 11 12 13 14 14 15 15 15 14 15 15 15 16 15 15 16 16 16 16 16 16 16 16 15 15 13 12 13 13 12
7 8 8 7 8 9 9 10 9 9 8 8 8 9 10 10 10 11 11 12 12 11 11 12 12 13 11 5 3 5 8 11 9 6 7 8 8 8 8 8 8 7 7 6 7 7 6 7 8 8 8 8 8 9 11 11 12 13 13 12 12 14 15 16 16 16 16 16 16 16 17 17 16 15 15 14 14 14 14 14 14 14 14 15 14
8 8 8 8 8 9 10 10 10 10 9 8 8 9 10 10 10 11 11 10 12 13 13 12 10 8 7 5 3 9 15 13 8 7 7 7 8 9 8 8 8 7 6 7 7 7 7 7 8 8 8 8 8 9 11 12 12 12 11 10 11 12 14 15 15 15 15 15 15 16 16 16 16 16 15 14 14 13 13 13 14 14 14 14 14
8 8 8 9 9 10 10 10 10 10 9 9 9 9 10 10 10 9 9 8 10 15 16 15 14 11 9 6 3 10 15 11 9 10 8 7 8 8 8 8 8 6 6 7 7 7 7 7 7 8 8 8 8 9 10 11 11 11 10 9 10 11 11 12 14 14 15 15 15 15 16 16 16 15 15 14 14 13 13 14 14 14 14 15 15
7 8 8 9 9 10 10 9 10 9 9 9 9 9 9 9 10 9 9 8 8 12 15 16 16 12 9 7 5 10 13 9 9 11 8 8 8 8 10 9 7 7 6 7 7 7 7 7 7 8 8 8 8 9 10 10 11 10 10 9 9 10 11 12 13 15 15 16 16 16 16 16 16 16 15 15 14 14 14 14 14 15 15 15 15
8 7 7 8 8 9 9 9 9 9 9 9 9 9 8 8 9 9 9 8 8 10 11 11 12 9 7 7 6 10 11 8 9 9 8 9 8 9 12 10 8 7 6 6 7 7 7 7 7 8 8 8 8 9 9 10 10 10 10 10 10 11 12 13 14 15 16 17 17 17 17 17 16 16 16 15 15 14 14 14 14 15 15 15 15
9 8 8 8 8 9 9 9 9 9 9 9 9 9 8 8 8 9 9 8 7 8 9 9 9 9 8 6 5 6 7 5 7 8 9 9 8 9 11 11 10 9 7 6 7 7 7 7 7 7 7 8 8 9 9 10 12 12 12 11 11 12 13 13 15 16 18 18 19 19 19 19 18 18 17 16 16 15 15 14 14 14 14 14 14
9 8 8 8 8 8 9 10 10 9 9 9 9 8 8 9 9 9 9 9 8 8 8 8 9 8 7 6 5 5 6 6 8 7 8 9 9 10 10 11 10 9 9 7 7 7 7 7 7 7 7 7 8 9 10 11 13 13 12 12 13 14 15 15 16 17 18 19 20 21 21 21 20 19 19 18 17 16 15 14 14 14 13 13 13
8 8 8 9 8 8 8 9 9 10 9 9 9 9 8 8 8 8 8 9 9 8 8 7 8 7 5 5 5 5 6 7 11 9 7 10 10 10 10 10 9 9 10 9 8 8 7 7 7 7 7 8 9 9 10 10 12 13 14 14 15 15 16 16 16 16 17 18 19 21 22 22 22 21 20 19 18 17 16 15 14 13 13 13 13
8 8 8 8 7 7 7 8 8 10 10 9 8 9 9 8 8 8 8 9 8 8 8 7 7 7 7 9 8 7 7 6 9 9 9 9 9 10 10 9 9 9 10 9 9 9 7 7 7 7 7 8 9 9 9 10 13 15 15 15 15 14 14 14 15 15 16 17 19 19 20 21 21 20 20 19 18 17 16 15 14 13 12 12 12
7 8 7 7 6 6 7 8 8 9 10 10 10 10 10 8 8 9 9 9 9 9 8 7 8 8 10 11 10 10 10 7 7 8 9 9 9 11 10 8 7 7 8 9 9 8 9 9 7 7 8 9 9 9 9 11 14 16 16 14 13 12 12 12 13 13 14 14 15 16 17 18 18 18 17 17 17 16 15 14 13 12 11 10 10
6 7 7 6 6 7 8 8 9 9 10 11 11 10 10 9 8 10 9 8 9 9 8 8 8 8 10 11 11 11 10 8 8 8 8 8 9 11 11 9 7 6 6 7 7 8 10 9 8 7 8 10 10 9 10 12 15 15 13 12 11 11 10 10 10 10 9 10 11 12 13 15 15 15 14 14 14 13 13 13 12 11 10 9 9
5 6 6 6 6 6 8 9 10 9 10 10 10 10 11 10 10 11 10 9 9 9 9 9 8 7 8 11 12 11 10 9 9 9 10 9 10 11 10 8 8 6 5 5 6 8 10 9 9 9 10 11 10 11 12 12 13 13 10 10 10 10 9 8 7 7 6 5 6 7 9 11 11 12 11 11 11 11 11 11 10 10 9 8 8
5 5 6 6 5 5 7 9 9 9 9 9 8 9 10 10 10 11 10 9 9 8 9 9 8 8 8 10 10 10 10 10 9 10 11 12 12 11 8 7 7 7 6 6 5 8 10 8 8 9 11 12 11 12 11 10 12 11 9 10 10 10 10 8 6 6 4 3 2 2 4 6 7 8 8 8 9 9 9 9 9 8 8 8 8
5 6 6 6 5 5 5 6 7 8 8 8 7 8 9 10 10 10 9 10 9 8 8 8 8 8 9 10 10 10 10 10 10 10 11 11 11 10 8 6 6 6 8 8 6 7 9 8 7 9 12 13 12 13 11 10 13 13 9 10 10 10 10 8 7 7 5 4 2 2 1 1 3 4 5 6 7 7 8 8 8 7 7 7 7
6 6 5 5 4 4 5 6 6 7 7 7 7 8 8 9 10 9 9 9 9 9 8 8 8 9 9 10 11 11 11 11 11 12 11 11 10 10 8 7 7 7 8 8 8 8 8 8 8 9 12 13 13 14 12 10 13 14 11 10 12 12 10 9 9 8 7 6 5 5 4 4 3 2 3 4 5 6 7 7 7 7 6 6 7
7 6 5 4 3 4 5 6 7 8 8 8 7 8 8 8 8 8 8 8 8 8 8 8 8 8 9 10 11 11 11 12 12 13 12 12 11 10 10 9 8 8 7 7 9 10 8 7 8 9 11 13 13 13 14 12 13 15 13 11 12 13 12 11 11 11 10 9 8 8 7 6 6 5 4 3 4 5 6 7 7 7 7 7 7
6 6 5 4 4 5 6 6 7 7 7 8 7 7 8 8 7 7 7 7 8 7 7 8 8 8 8 9 10 10 11 11 12 13 13 13 12 11 10 10 9 9 7 6 7 10 9 8 8 9 11 13 13 13 15 14 13 15 15 13 12 13 12 11 11 12 12 11 11 10 9 9 8 7 7 6 5 5 6 7 7 7 6 7 7
7 6 5 5 5 6 6 6 7 6 6 7 7 6 6 7 7 6 6 6 7 8 8 8 8 7 7 8 9 10 10 10 11 12 13 12 11 11 11 10 9 9 8 6 5 7 9 10 10 9 11 13 13 12 14 14 13 14 15 14 13 13 13 12 11 11 13 13 14 13 12 11 10 9 9 8 7 7 7 7 7 6 6 6 6
7 6 6 6 6 6 7 7 7 6 6 7 7 7 7 7 7 7 7 7 7 8 8 8 7 7 6 7 8 9 10 10 11 12 12 11 10 10 11 10 9 8 8 6 6 6 7 9 10 10 10 13 13 12 13 14 14 14 14 14 14 13 13 12 11 11 14 14 14 15 15 13 12 11 10 10 9 8 8 7 7 6 6 6 7
8 7 7 6 7 7 7 7 7 6 6 6 6 7 7 7 8 7 7 7 7 7 7 7 7 6 6 6 6 8 10 11 11 11 11 12 10 10 10 10 9 8 7 7 7 7 7 8 10 10 10 11 12 12 12 13 14 14 14 14 14 13 13 13 12 13 16 17 16 17 16 15 14 12 12 11 10 9 8 7 7 7 7 7 8
9 7 7 6 7 8 8 7 7 7 6 6 6 7 7 7 7 7 7 7 6 6 6 6 6 5 6 6 6 6 8 9 10 11 12 12 11 10 9 9 8 8 7 8 8 8 9 9 9 10 11 11 11 12 13 13 13 14 14 14 15 14 14 13 12 12 15 18 20 19 18 16 15 14 13 13 11 10 9 8 8 7 8 9 9
8 7 7 6 6 7 8 7 6 6 5 5 6 6 7 7 7 7 7 6 6 6 5 5 5 5 5 6 5 6 6 7 8 9 10 11 11 10 9 8 8 7 7 8 8 9 9 10 10 10 11 11 12 12 12 13 14 14 13 14 15 15 15 15 14 12 12 15 20 20 18 17 16 15 14 13 13 11 10 9 9 9 9 10 10
8 8 7 7 7 7 7 7 6 5 4 4 5 5 6 6 6 7 7 8 7 6 6 5 5 5 6 6 6 6 6 7 8 8 8 10 9 9 9 8 7 7 7 7 8 9 9 10 11 11 11 11 12 12 12 12 14 15 14 14 14 14 15 16 16 15 13 14 16 16 17 18 17 16 15 15 14 13 12 11 11 11 11 11 11
8 8 7 7 7 7 7 6 5 4 3 4 5 5 4 5 6 7 8 8 8 7 7 6 6 6 6 6 6 5 6 7 7 7 7 8 8 7 7 7 8 8 9 8 8 8 9 9 10 10 11 11 11 12 12 13 14 14 15 15 15 15 15 14 15 16 15 14 13 13 15 17 16 15 14 14 15 14 11 11 11 12 11 11 12
8 8 7 6 6 6 7 6 5 4 4 4 5 6 5 4 3 5 7 8 8 7 7 6 6 6 6 6 5 5 5 4 4 5 5 6 6 7 6 6 7 8 8 9 9 9 9 9 10 10 11 12 11 12 13 14 15 14 14 15 15 16 16 14 13 14 15 14 13 13 14 14 14 14 13 13 14 13 9 8 11 12 12 12 12
7 7 7 6 5 6 7 7 5 5 4 3 4 5 5 4 2 3 4 6 6 6 6 6 6 6 6 6 5 5 4 4 4 4 4 5 6 7 8 8 9 9 9 9 9 9 10 10 10 10 11 12 12 12 13 14 15 15 15 15 16 17 17 15 14 14 15 16 14 13 14 14 15 14 12 13 13 11 10 12 15 15 14 13 13
7 9 9 8 8 8 9 9 7 6 5 4 3 3 3 3 3 2 3 4 5 5 5 5 5 6 6 5 5 4 4 5 4 4 5 6 6 7 8 9 10 11 11 11 11 10 10 11 12 12 13 13 13 13 14 13 14 15 16 17 17 18 18 18 18 16 13 15 15 14 13 14 15 14 13 13 12 11 14 18 18 16 15 14 14
9 11 12 12 12 11 12 12 11 9 7 5 4 3 2 2 2 3 2 3 4 4 3 3 3 3 4 4 3 3 4 5 5 4 5 6 7 8 9 10 11 12 13 14 14 13 12 12 12 13 13 13 13 14 13 12 13 14 16 17 17 18 19 20 19 14 9 12 14 14 14 14 14 14 14 13 12 12 15 19 18 16 15 14 13
12 13 14 14 14 13 13 13 13 12 10 7 5 3 2 2 3 2 1 0 1 2 2 2 2 2 2 3 4 4 4 5 5 5 5 6 7 8 9 10 12 14 14 15 16 16 16 16 16 15 14 14 14 14 13 13 13 14 15 16 16 17 17 16 15 12 11 13 14 12 14 13 13 13 14 13 13 12 13 17 18 15 14 14 13
15 14 15 16 15 14 13 12 12 12 11 8 7 5 3 2 3 2 2 1 0 0 0 0 1 1 2 3 3 4 4 4 6 8 7 7 7 9 10 11 12 13 14 16 18 18 19 20 20 18 16 16 15 14 12 13 14 14 15 14 13 13 12 12 13 13 12 14 15 13 13 13 12 13 14 13 12 11 12 16 18 16 14 14 14
16 14 15 16 15 14 13 11 11 10 9 8 6 5 4 3 3 3 3 2 2 1 1 1 1 1 1 2 3 3 3 3 7 10 9 9 9 10 12 13 14 15 15 17 20 20 20 21 21 20 20 20 19 17 15 15 15 13 12 12 11 11 12 13 14 14 13 14 17 17 15 15 13 13 13 13 12 11 11 14 17 16 14 14 14
17 15 15 15 15 14 12 11 10 8 6 6 5 5 4 3 3 4 3 1 1 1 1 2 2 1 3 5 4 4 3 5 8 11 11 11 10 10 12 14 15 15 16 17 20 23 22 22 23 23 24 24 24 24 23 23 21 17 13 13 13 13 15 16 17 16 14 15 18 18 17 16 15 13 13 12 12 11 10 11 13 14 13 13 12
15 13 13 12 12 12 11 9 8 6 4 4 4 4 3 3 3 3 3 2 1 2 2 3 3 3 6 9 8 5 6 8 11 12 12 13 11 11 13 15 15 16 16 15 17 21 23 23 23 25 26 26 26 26 26 26 26 23 19 17 16 15 17 17 17 18 15 14 16 17 16 15 14 13 12 11 11 12 12 9 10 11 11 10 10
10 9 8 7 8 8 8 7 6 4 3 3 4 4 4 4 3 3 3 3 3 3 4 4 4 4 6 9 11 10 10 11 11 11 12 13 13 13 14 16 17 18 18 16 15 17 18 18 19 21 23 24 25 26 27 26 25 24 23 21 18 17 18 18 17 16 15 13 15 18 16 14 13 12 12 11 9 10 10 9 9 9 8 8 8
Wind_Direction
141 139 135 136 134 134 136 137 145 148 150 156 160 161 162 165 170 177 182 181 174 173 169 161 155 149 140 132 126 119 114 113 115 115 114 120 119 108 106 102 94 92 92 96 98 82 77 86 96 100 98 99 97 91 84 74 71 72 73 74 67 64 72 67 62 62 60 59 62 61 61 64 57 60 70 67 67 67 62 66 71 69 67 65 63
140 137 135 135 134 138 141 144 150 152 152 154 153 154 158 163 171 178 177 176 172 168 165 160 155 147 140 134 126 120 117 114 115 113 112 117 115 110 114 109 102 104 110 112 101 84 81 90 96 98 100 102 98 88 79 69 65 65 65 72 70 62 64 65 62 60 56 55 57 58 58 59 55 55 61 63 67 70 65 63 69 71 71 70 66
136 135 139 140 142 147 148 150 153 153 150 150 150 152 159 164 170 175 175 173 164 161 161 159 158 150 143 136 128 123 119 116 115 114 114 115 111 110 115 114 112 110 112 112 101 94 91 92 95 96 99 100 94 84 74 67 64 60 55 58 61 62 66 68 67 61 57 57 55 54 56 56 58 57 55 59 64 66 64 60 65 71 69 68 69
137 138 144 147 151 154 152 151 156 157 151 148 150 152 156 157 162 168 168 163 157 159 159 159 162 153 144 137 129 126 122 119 117 114 115 118 118 117 116 115 114 109 105 100 101 108 103 100 104 102 104 100 89 79 63 62 62 52 44 48 53 60 68 71 73 70 64 63 59 56 55 55 55 56 55 59 59 56 59 59 62 71 70 66 68
143 147 151 155 158 157 155 156 161 163 156 151 151 152 151 150 154 159 159 159 156 156 157 160 163 151 144 139 129 125 122 122 120 117 119 119 120 122 123 121 118 112 105 97 97 107 105 107 110 99 90 82 69 56 45 42 41 27 24 38 46 55 67 72 73 74 73 71 69 66 63 60 55 54 58 61 60 56 58 58 59 68 73 68 65
148 154 157 163 163 161 160 162 168 170 163 157 154 153 150 152 157 156 154 158 157 159 164 162 159 150 146 140 127 121 121 124 122 124 123 117 119 125 129 128 126 118 101 89 85 94 97 97 96 87 72 61 47 41 44 36 21 1 5 25 33 46 66 75 76 77 80 80 79 77 71 65 59 56 59 64 65 59 58 58 58 63 68 70 68
154 158 161 168 168 164 164 169 172 173 172 165 159 159 159 161 164 160 156 159 158 162 166 159 154 151 145 138 128 124 124 125 128 131 128 123 123 127 123 118 127 126 107 101 101 102 102 98 95 96 87 70 54 43 45 45 24 9 10 14 12 13 34 69 79 78 79 81 80 75 69 66 63 60 59 63 66 62 62 60 58 59 59 64 69
159 161 161 170 177 169 169 175 172 173 182 174 163 166 167 167 168 166 162 159 159 161 163 157 152 147 140 136 132 130 131 132 135 136 134 133 128 124 117 110 117 119 104 105 112 107 97 95 95 91 85 73 64 51 42 43 35 23 21 15 4 338 308 320 36 54 64 66 69 70 64 63 66 64 61 63 66 65 65 63 58 55 52 55 63
161 158 162 185 187 172 168 173 171 176 186 176 169 172 170 169 167 166 168 162 158 158 159 154 148 146 142 137 135 136 136 137 140 141 141 139 133 128 120 113 118 114 100 95 101 98 91 90 88 77 70 69 70 63 51 46 39 29 27 29 26 11 292 277 281 295 316 332 4 66 64 63 70 69 66 67 68 67 65 64 61 56 52 50 53
157 154 177 198 186 167 165 166 170 175 180 177 175 173 170 172 166 161 167 166 162 160 157 152 148 147 144 138 136 139 139 140 143 146 144 139 132 127 119 114 111 111 108 96 93 102 100 78 73 68 64 67 70 63 58 55 47 38 32 35 38 26 347 282 260 277 279 287 288 267 115 77 80 75 71 70 70 69 66 64 64 61 56 52 48
156 159 188 194 173 163 164 164 167 170 179 181 176 172 167 168 167 160 158 162 163 160 155 151 150 148 145 141 141 141 140 143 145 143 138 133 130 123 121 119 109 104 105 104 104 114 102 71 71 72 66 65 62 51 42 40 49 46 38 36 40 32 23 23 44 332 304 297 287 259 252 247 143 97 74 69 70 68 67 65 63 60 57 56 53
158 171 190 180 164 163 164 166 169 172 183 184 177 174 165 166 168 161 154 152 155 157 154 150 145 138 137 139 142 143 137 137 139 136 132 130 130 125 119 118 111 107 105 113 121 113 103 95 94 85 70 60 54 51 46 45 58 57 46 41 42 37 44 65 73 59 49 28 330 240 240 243 217 169 76 55 32 35 58 61 62 58 48 48 55
165 181 185 169 161 162 163 170 173 178 186 182 177 171 165 167 165 162 161 156 154 158 157 150 143 137 134 130 125 125 127 131 133 134 136 135 134 130 124 123 120 113 107 116 119 110 99 87 81 77 73 63 54 53 52 50 58 63 55 51 51 55 69 81 79 73 68 60 62 96 132 155 188 194 212 249 300 310 313 327 7 38 16 8 39
178 183 177 165 164 163 167 174 178 182 179 174 172 166 166 168 165 166 168 165 161 161 158 153 149 144 138 129 110 102 112 124 129 133 139 137 134 131 128 132 135 128 125 122 111 98 88 79 78 75 71 72 70 66 62 57 60 66 65 62 64 71 78 83 83 80 75 70 72 79 86 86 88 102 137 327 5 2 340 330 333 341 340 328 333
181 178 172 172 172 170 174 179 181 182 176 171 170 168 171 173 173 172 170 169 166 165 166 160 150 143 132 132 128 114 119 125 125 127 128 127 128 131 133 139 139 130 124 114 97 86 82 80 82 81 75 76 80 79 75 68 65 69 73 73 73 77 81 82 82 80 78 77 77 80 84 85 84 85 83 75 65 58 55 54 39 26 24 9 349
181 180 182 183 179 178 181 182 184 186 182 179 175 174 176 177 179 177 173 171 167 172 177 171 157 149 132 119 140 141 145 140 129 117 116 119 119 125 130 133 130 120 114 105 92 85 83 83 83 84 84 83 82 82 81 75 70 71 79 84 82 81 83 84 82 80 80 81 81 83 87 88 87 86 84 81 77 73 74 78 73 62 55 50 51
184 189 190 185 181 183 185 184 188 190 189 188 181 179 181 182 183 181 180 178 172 174 178 178 166 156 148 136 137 153 158 145 133 114 113 117 114 118 120 122 120 114 109 102 97 91 86 88 88 90 93 88 83 82 81 79 77 77 83 90 90 88 85 84 84 83 84 84 83 84 86 87 87 88 88 86 81 77 74 74 73 67 62 59 62
186 190 184 180 179 180 185 188 189 190 192 193 187 184 186 188 187 185 190 188 173 168 177 181 176 168 164 157 146 165 161 152 144 128 124 120 113 115 114 115 116 111 105 101 100 96 92 92 89 91 93 87 85 84 83 84 86 89 91 92 93 95 93 88 86 85 84 85 84 84 84 84 84 85 86 86 83 81 75 70 67 63 61 60 59
186 185 178 179 179 178 183 185 187 190 192 195 191 188 191 191 189 189 197 192 169 169 184 181 179 194 188 164 147 164 168 167 154 143 140 130 121 115 110 113 112 103 99 100 100 97 94 95 93 91 89 87 89 90 88 86 88 93 95 94 94 99 99 96 93 90 87 86 85 84 83 82 81 80 80 79 76 74 70 63 59 58 56 54 54
187 184 178 179 181 179 179 181 185 189 191 196 194 190 193 191 188 189 195 193 175 177 184 181 184 196 189 178 174 165 175 180 162 157 154 141 134 121 114 118 113 101 94 97 101 99 95 95 97 95 93 93 93 95 96 93 94 99 98 96 97 98 98 98 98 95 92 90 87 85 82 81 80 78 76 74 72 69 65 62 58 56 55 53 52
184 184 181 180 181 176 174 178 181 185 189 194 194 192 192 187 183 185 186 190 190 183 183 187 194 194 180 182 180 166 176 181 169 172 162 144 146 136 135 138 124 106 97 99 103 101 101 100 100 102 100 100 99 99 99 96 100 108 106 102 101 98 98 97 96 95 93 90 87 85 83 82 81 80 79 77 74 72 69 66 62 59 57 54 53
176 179 179 178 178 172 173 178 177 181 186 189 193 190 187 184 180 181 183 187 186 180 187 198 203 199 187 191 185 169 174 176 177 180 160 145 148 147 150 151 136 117 109 112 115 114 112 109 108 108 106 106 106 102 101 106 113 118 116 110 106 103 102 101 99 96 94 90 87 85 84 83 82 82 81 79 77 75 73 70 67 62 57 54 51
170 170 172 173 172 170 174 176 175 180 183 186 193 190 186 183 178 177 184 192 185 181 197 209 213 212 203 204 198 167 165 184 195 181 157 148 145 149 154 151 140 131 126 123 128 130 125 122 118 116 114 111 109 106 110 123 128 124 120 116 111 107 105 104 102 100 96 93 90 87 86 84 83 82 80 78 76 75 73 70 68 64 59 54 50
164 164 165 166 169 171 175 174 173 179 184 189 192 193 193 186 181 181 185 197 197 192 204 211 218 222 207 202 207 186 168 190 229 217 161 146 147 152 155 150 140 133 134 136 139 140 135 132 129 126 125 118 116 117 118 127 132 128 124 119 114 110 108 105 103 100 96 93 91 90 88 85 83 81 78 76 74 71 69 66 62 60 57 54 51
161 162 161 162 166 168 173 175 174 176 182 190 190 191 198 194 190 188 187 199 202 202 207 209 218 224 217 210 205 197 183 194 229 226 158 143 153 154 154 151 140 135 142 148 145 141 141 141 139 136 133 126 126 127 124 131 137 132 126 122 118 114 111 108 105 102 99 95 92 89 87 84 82 79 76 74 71 67 64 60 56 53 50 47 45
160 161 160 164 168 166 171 175 175 175 174 181 184 185 194 196 194 193 193 199 203 207 210 207 211 211 213 218 209 202 202 209 224 200 155 154 160 155 154 146 141 145 149 150 148 146 147 149 148 143 138 136 137 134 130 137 143 137 131 128 124 121 118 112 109 108 104 99 94 89 86 84 81 79 77 74 70 67 62 58 53 47 43 39 36
156 156 155 163 172 173 176 176 175 174 170 174 180 183 186 187 193 198 195 197 201 206 207 207 210 203 202 211 209 201 197 200 209 186 165 166 158 155 157 146 148 153 148 151 153 149 147 149 153 150 146 145 143 139 137 144 148 141 135 133 131 129 126 121 116 113 108 102 96 91 88 85 83 80 77 74 71 68 63 58 53 46 39 33 27
150 150 152 162 171 176 183 179 173 171 170 173 178 180 179 178 191 197 193 198 205 203 203 203 204 200 197 196 191 184 182 189 195 178 165 163 156 158 161 154 157 154 150 160 153 146 149 153 155 155 156 154 151 150 149 152 152 142 136 141 142 141 139 133 129 121 113 105 98 92 88 84 83 79 76 74 70 67 63 57 52 44 35 27 18
151 153 156 160 163 171 178 178 174 171 170 174 178 179 178 180 185 186 186 197 206 204 201 195 192 194 193 190 186 176 172 184 183 166 163 167 162 163 165 163 163 159 160 164 152 151 159 164 159 159 165 162 159 160 155 159 158 145 143 156 157 159 156 149 146 139 128 117 100 91 87 83 81 78 74 71 67 62 59 54 48 42 30 18 8
151 157 158 155 156 164 174 177 178 178 176 177 183 183 184 187 185 182 184 192 201 205 201 188 181 188 186 187 190 179 171 177 171 161 165 166 163 167 170 166 164 167 165 156 154 156 161 170 168 163 170 169 168 168 164 174 175 161 160 171 170 176 174 168 174 173 169 164 128 89 84 80 76 74 69 64 60 55 52 47 41 36 26 13 360
151 159 161 156 155 164 175 181 183 186 185 184 189 189 189 189 184 182 183 190 197 199 196 185 177 182 183 183 186 177 170 171 165 163 164 161 160 164 164 155 149 161 167 158 151 153 160 171 170 164 172 174 175 176 174 186 190 179 172 181 187 192 189 189 198 199 206 219 226 263 301 37 56 60 56 51 47 43 40 37 32 27 20 8 354
150 157 164 161 163 171 178 185 186 189 190 189 192 191 187 184 183 182 182 191 199 194 189 187 181 182 182 182 182 176 173 172 166 164 164 160 161 162 159 149 139 152 172 164 147 148 161 171 170 169 174 177 181 186 184 188 197 193 182 189 205 206 200 208 221 218 219 231 243 257 269 285 299 331 13 22 23 24 24 22 20 16 9 359 347
152 158 166 165 171 177 178 182 181 183 186 184 186 186 181 178 179 181 182 189 194 189 186 185 182 179 178 178 177 173 175 175 168 166 166 163 163 165 161 154 148 155 176 174 149 147 159 172 178 177 177 183 189 192 192 191 196 199 195 198 211 211 205 214 231 237 235 236 246 255 260 272 279 282 295 323 344 355 3 6 6 6 0 350 339
158 161 165 163 170 175 175 174 170 172 176 174 172 175 175 172 170 171 176 182 183 180 178 176 172 169 171 173 171 170 177 177 171 170 168 166 168 167 164 165 162 163 179 185 156 151 165 178 186 183 182 192 199 198 199 199 196 199 204 206 210 212 213 218 227 241 247 244 247 255 259 266 274 279 279 286 306 324 338 348 351 354 351 344 337
162 161 157 159 165 170 170 164 155 154 159 158 154 155 159 161 160 160 165 172 172 167 163 161 159 158 165 170 167 172 179 178 177 175 171 173 175 169 169 174 174 173 184 197 182 167 172 179 190 194 188 196 208 206 202 204 203 204 210 213 213 215 219 223 227 240 253 253 252 255 259 263 269 274 276 276 286 303 317 329 336 341 339 335 332
161 158 155 157 158 164 169 166 156 150 151 154 152 151 151 150 152 155 155 155 156 157 156 154 152 150 155 163 168 177 184 183 182 180 175 178 179 174 175 179 181 184 190 201 212 206 191 186 195 205 198 197 211 215 207 207 208 210 216 219 220 221 222 226 230 238 249 255 255 255 257 260 263 268 271 270 276 289 302 314 321 325 325 325 325
159 156 158 163 162 163 167 169 167 163 160 161 163 164 161 155 152 152 151 149 149 149 148 147 144 142 144 151 157 170 183 187 187 185 183 183 184 183 182 183 186 189 196 211 220 227 226 210 201 209 210 203 209 217 214 211 211 214 221 225 226 228 228 228 230 235 244 250 254 254 254 255 256 260 263 264 270 281 292 303 309 310 312 314 314
157 158 161 166 170 168 168 171 174 173 168 164 164 166 166 163 161 157 153 152 152 147 145 145 143 140 144 149 147 154 170 181 186 189 189 188 192 192 190 196 199 192 200 220 227 230 236 235 220 211 213 213 215 218 217 216 218 219 222 227 230 231 232 228 225 228 238 245 250 251 250 250 250 251 255 258 263 273 282 290 293 296 300 305 307
152 154 155 160 169 169 166 166 167 168 168 166 162 165 165 163 164 166 164 161 160 155 153 155 154 151 152 151 147 146 154 164 170 180 188 189 195 197 194 204 216 211 214 229 236 235 233 238 236 221 215 219 221 223 222 219 223 227 227 229 231 231 230 228 226 222 218 231 245 248 243 241 245 247 248 252 258 265 273 278 282 287 292 298 303
147 143 143 149 158 161 162 165 164 161 161 161 163 169 173 172 171 173 175 175 174 171 169 166 162 164 164 156 148 144 146 153 154 160 173 179 186 196 199 207 220 224 227 231 235 237 232 232 236 232 228 226 221 225 230 223 222 230 232 233 237 239 234 228 227 222 207 214 232 236 231 232 237 242 242 247 254 257 263 269 274 280 285 294 302
143 137 138 145 151 156 159 158 148 142 148 157 166 170 168 174 182 183 184 185 183 179 178 173 166 167 168 162 158 153 148 152 154 153 165 174 183 197 204 210 217 220 227 231 228 231 230 227 230 232 234 232 223 225 230 226 226 234 238 238 241 249 249 236 228 221 212 212 213 212 217 219 222 230 232 236 247 251 257 268 271 274 282 292 303
140 135 135 140 148 154 150 138 132 153 174 179 181 181 170 162 172 180 186 190 189 183 179 174 168 168 169 167 173 179 170 166 169 171 178 186 199 212 216 217 222 226 232 235 233 232 232 231 229 228 231 235 233 232 234 235 237 243 246 243 241 249 256 249 235 221 212 215 213 208 211 207 205 217 218 217 231 239 241 244 249 264 283 293 299
123 125 128 129 133 133 124 121 136 161 170 172 179 188 189 182 166 159 174 183 186 185 181 179 180 180 179 178 184 194 196 196 205 214 221 221 221 227 232 232 236 240 242 246 247 243 241 242 242 238 239 242 244 246 246 245 247 247 248 250 251 256 258 254 247 235 217 215 217 215 214 205 204 218 224 217 219 219 216 222 235 257 279 288 293
110 109 110 105 104 103 100 107 122 129 134 147 159 172 194 199 182 166 171 170 171 180 185 187 189 183 180 183 185 197 212 219 228 243 252 253 249 246 244 242 241 240 241 247 253 253 253 253 252 250 249 251 254 256 255 255 257 256 255 256 258 262 262 258 259 257 234 214 214 221 222 210 209 224 230 222 216 210 218 231 242 259 272 281 289
122 114 112 103 95 93 95 103 111 112 114 120 128 141 160 175 170 164 175 174 170 175 180 190 199 185 183 193 196 208 233 246 254 259 261 265 269 265 259 254 250 245 241 242 244 248 252 255 255 254 252 253 255 258 261 262 260 260 261 260 259 260 262 262 265 265 240 208 207 221 230 215 208 224 228 222 219 217 228 243 251 260 269 279 286
116 113 117 111 97 89 92 101 104 103 102 103 105 119 131 148 158 145 122 166 165 164 165 188 219 215 216 232 234 234 246 261 261 251 253 264 267 266 263 258 256 254 253 250 248 246 247 249 252 255 255 255 255 257 258 253 248 253 259 261 260 258 258 259 258 250 234 221 212 222 241 228 204 217 231 225 219 218 232 250 256 261 272 281 281
107 104 110 111 103 91 87 91 92 90 89 93 102 112 114 135 143 106 45 12 38 24 50 57 274 259 259 267 265 256 256 254 242 237 243 252 254 255 255 252 251 252 253 254 255 254 252 250 251 253 256 257 256 254 247 239 242 251 256 256 256 254 251 249 245 237 232 230 223 224 246 243 212 216 234 227 216 219 232 246 257 265 274 279 276
106 103 105 108 107 101 95 90 85 81 80 81 86 93 100 118 109 70 40 31 47 39 33 15 328 303 302 298 284 278 278 261 251 252 253 252 251 255 256 255 254 252 250 253 259 261 257 253 252 252 253 253 253 250 245 243 247 249 246 246 243 240 242 245 244 237 223 222 222 218 229 237 218 216 234 227 214 222 230 238 253 263 270 274 271
104 102 103 106 108 109 109 104 92 79 69 65 66 63 66 84 85 57 30 23 32 15 349 329 323 305 276 276 285 295 288 263 261 269 272 268 264 264 261 259 257 256 252 252 258 263 262 258 255 254 255 256 256 255 254 254 254 246 237 240 240 238 243 249 254 250 229 213 214 213 221 234 225 218 231 228 214 222 232 234 242 252 265 271 266
102 100 98 99 103 106 108 110 108 97 64 37 26 27 22 19 39 32 3 340 329 322 311 295 289 281 275 277 277 270 264 264 266 272 277 277 274 269 266 267 265 262 259 253 253 262 266 264 259 255 255 255 256 256 255 255 254 247 238 240 246 248 248 251 257 257 243 224 217 212 218 232 225 213 222 227 222 228 234 229 226 241 265 272 268
111 109 102 95 93 92 87 85 88 88 67 9 345 351 350 341 1 12 343 323 313 309 306 294 284 277 279 284 282 272 265 268 271 273 274 274 270 266 268 270 267 265 266 262 257 260 265 266 262 258 256 256 256 256 255 254 253 247 241 241 248 252 252 253 253 251 250 240 219 209 212 221 213 203 210 225 235 228 214 206 212 225 239 249 261